| time (UTC) | temp F | wind direction | speed knots | gust knots | rain 1hr in | rain 24hr in | rain mn in | humidity % | barometer mb |
| 20260504211045 | 78 | 190 | 3.5 | 7.8 | 0.00 | 0.00 | 0.00 | 32 | 1013.6 |
| 20260504210543 | 78 | 224 | 3.5 | 9.6 | 0.00 | 0.00 | 0.00 | 29 | 1013.6 |
| 20260504210048 | 78 | 236 | 2.6 | 10.4 | 0.00 | 0.00 | 0.00 | 30 | 1013.6 |
| 20260504205543 | 78 | 214 | 3.5 | 10.4 | 0.00 | 0.00 | 0.00 | 29 | 1013.6 |
| 20260504205044 | 79 | 205 | 1.7 | 8.7 | 0.00 | 0.00 | 0.00 | 29 | 1013.7 |
| 20260504204558 | 79 | 164 | 0.9 | 7.8 | 0.00 | 0.00 | 0.00 | 29 | 1013.7 |
| 20260504204044 | 80 | 0 | 0.9 | 4.3 | 0.00 | 0.00 | 0.00 | 30 | 1013.8 |
| 20260504203543 | 79 | 214 | 1.7 | 5.2 | 0.00 | 0.00 | 0.00 | 30 | 1014.0 |
| 20260504203101 | 79 | 254 | 1.7 | 5.2 | 0.00 | 0.00 | 0.00 | 31 | 1013.9 |
| 20260504202543 | 79 | 103 | 0.9 | 6.1 | 0.00 | 0.00 | 0.00 | 29 | 1014.0 |
| 20260504202046 | 79 | 17 | 2.6 | 6.1 | 0.00 | 0.00 | 0.00 | 31 | 1014.1 |
| 20260504201552 | 79 | 161 | 0.9 | 5.2 | 0.00 | 0.00 | 0.00 | 29 | 1014.1 |
| 20260504201044 | 79 | 0 | 1.7 | 7.8 | 0.00 | 0.00 | 0.00 | 27 | 1014.0 |
| 20260504200543 | 78 | 159 | 1.7 | 7.8 | 0.00 | 0.00 | 0.00 | 28 | 1014.1 |
| 20260504200100 | 78 | 175 | 2.6 | 7.0 | 0.00 | 0.00 | 0.00 | 28 | 1014.2 |
| 20260504195544 | 79 | 310 | 1.7 | 6.1 | 0.00 | 0.00 | 0.00 | 27 | 1014.2 |
| 20260504195043 | 78 | 0 | 1.7 | 8.7 | 0.00 | 0.00 | 0.00 | 27 | 1014.3 |
| 20260504194601 | 77 | 216 | 1.7 | 9.6 | 0.00 | 0.00 | 0.00 | 28 | 1014.4 |
| 20260504194044 | 78 | 211 | 2.6 | 10.4 | 0.00 | 0.00 | 0.00 | 27 | 1014.5 |
| 20260504193544 | 78 | 200 | 3.5 | 10.4 | 0.00 | 0.00 | 0.00 | 29 | 1014.5 |
| 20260504193048 | 77 | 261 | 0.9 | 8.7 | 0.00 | 0.00 | 0.00 | 30 | 1014.5 |
| 20260504192544 | 78 | 195 | 3.5 | 8.7 | 0.00 | 0.00 | 0.00 | 29 | 1014.6 |
| 20260504192043 | 78 | 214 | 1.7 | 8.7 | 0.00 | 0.00 | 0.00 | 30 | 1014.8 |
| 20260504191607 | 78 | 232 | 1.7 | 6.1 | 0.00 | 0.00 | 0.00 | 32 | 1014.9 |
| 20260504191044 | 77 | 228 | 2.6 | 7.8 | 0.00 | 0.00 | 0.00 | 31 | 1015.0 |
| 20260504190547 | 77 | 221 | 1.7 | 7.8 | 0.00 | 0.00 | 0.00 | 33 | 1015.1 |
| 20260504190053 | 77 | 306 | 0.9 | 5.2 | 0.00 | 0.00 | 0.00 | 32 | 1015.1 |
| 20260504185543 | 78 | 124 | 0.9 | 5.2 | 0.00 | 0.00 | 0.00 | 31 | 1015.2 |
| 20260504185044 | 77 | 176 | 0.9 | 4.3 | 0.00 | 0.00 | 0.00 | 31 | 1015.2 |
| 20260504184553 | 76 | 142 | 0.9 | 4.3 | 0.00 | 0.00 | 0.00 | 33 | 1015.2 |
| 20260504184043 | 77 | 348 | 1.7 | 6.1 | 0.00 | 0.00 | 0.00 | 31 | 1015.3 |
| 20260504183544 | 76 | 111 | 0.9 | 7.8 | 0.00 | 0.00 | 0.00 | 32 | 1015.3 |
| 20260504183052 | 76 | 192 | 2.6 | 7.8 | 0.00 | 0.00 | 0.00 | 31 | 1015.5 |
| 20260504182542 | 77 | 0 | 1.7 | 5.2 | 0.00 | 0.00 | 0.00 | 35 | 1015.4 |
| 20260504182042 | 76 | 159 | 1.7 | 9.6 | 0.00 | 0.00 | 0.00 | 33 | 1015.5 |
| 20260504181557 | 77 | 342 | 1.7 | 9.6 | 0.00 | 0.00 | 0.00 | 30 | 1015.5 |
| 20260504181042 | 76 | 321 | 3.5 | 7.0 | 0.00 | 0.00 | 0.00 | 33 | 1015.5 |
| 20260504180543 | 76 | 198 | 0.9 | 7.0 | 0.00 | 0.00 | 0.00 | 32 | 1015.4 |
| 20260504180054 | 76 | 217 | 1.7 | 7.0 | 0.00 | 0.00 | 0.00 | 36 | 1015.4 |
| 20260504175543 | 76 | 184 | 2.6 | 9.6 | 0.00 | 0.00 | 0.00 | 32 | 1015.4 |
| 20260504175040 | 75 | 38 | 1.7 | 10.4 | 0.00 | 0.00 | 0.00 | 36 | 1015.4 |
| 20260504174553 | 75 | 209 | 4.3 | 10.4 | 0.00 | 0.00 | 0.00 | 32 | 1015.6 |
| 20260504174043 | 76 | 329 | 1.7 | 4.3 | 0.00 | 0.00 | 0.00 | 31 | 1015.6 |
| 20260504173543 | 76 | 311 | 0.9 | 3.5 | 0.00 | 0.00 | 0.00 | 38 | 1015.6 |
| 20260504173049 | 76 | 263 | 1.7 | 5.2 | 0.00 | 0.00 | 0.00 | 34 | 1015.6 |
| 20260504172545 | 75 | 0 | 1.7 | 5.2 | 0.00 | 0.00 | 0.00 | 34 | 1015.8 |
| 20260504172045 | 74 | 155 | 0.0 | 8.7 | 0.00 | 0.00 | 0.00 | 35 | 1016.0 |
| 20260504171552 | 73 | 209 | 3.5 | 8.7 | 0.00 | 0.00 | 0.00 | 32 | 1015.9 |
| 20260504171044 | 75 | 208 | 2.6 | 8.7 | 0.00 | 0.00 | 0.00 | 34 | 1015.9 |
| 20260504170544 | 74 | 237 | 2.6 | 7.8 | 0.00 | 0.00 | 0.00 | 32 | 1016.0 |
| 20260504151044 | 70 | 232 | 1.7 | 4.3 | 0.00 | 0.00 | 0.00 | 40 | 1017.5 |
| 20260504150543 | 69 | 149 | 0.9 | 4.3 | 0.00 | 0.00 | 0.00 | 43 | 1017.5 |
| 20260504141040 | 64 | 157 | 0.0 | 2.6 | 0.00 | 0.00 | 0.00 | 51 | 1017.5 |
| 20260504140544 | 64 | 240 | 0.9 | 3.5 | 0.00 | 0.00 | 0.00 | 50 | 1017.4 |
| 20260504130540 | 57 | 174 | 0.9 | 2.6 | 0.00 | 0.00 | 0.00 | 68 | 1017.5 |
| 20260504110542 | 41 | 0 | 0.0 | 0.0 | 0.00 | 0.00 | 0.00 | 91 | 1017.3 |
| 20260504100545 | 41 | 0 | 0.0 | 0.0 | 0.00 | 0.00 | 0.00 | 90 | 1016.8 |
| 20260504090105 | 43 | 0 | 0.0 | 0.0 | 0.00 | 0.00 | 0.00 | 86 | 1017.1 |
| 20260504081554 | 45 | 0 | 0.0 | 0.0 | 0.00 | 0.00 | 0.00 | 81 | 1016.9 |
| 20260504081042 | 45 | 0 | 0.0 | 0.0 | 0.00 | 0.00 | 0.00 | 81 | 1016.8 |
| 20260504080542 | 46 | 0 | 0.0 | 0.0 | 0.00 | 0.00 | 0.00 | 81 | 1016.8 |
| 20260504050545 | 53 | 205 | 0.9 | 4.3 | 0.00 | 0.00 | 0.00 | 65 | 1016.9 |
| 20260504045546 | 53 | 231 | 1.7 | 6.1 | 0.00 | 0.00 | 0.00 | 65 | 1016.8 |
| 20260504045044 | 52 | 0 | 0.9 | 4.3 | 0.00 | 0.00 | 0.00 | 65 | 1016.9 |
| 20260504044609 | 52 | 195 | 1.7 | 5.2 | 0.00 | 0.00 | 0.00 | 66 | 1016.8 |
| 20260504044042 | 52 | 192 | 1.7 | 6.1 | 0.00 | 0.00 | 0.00 | 67 | 1016.8 |
| 20260504043545 | 52 | 0 | 0.9 | 6.1 | 0.00 | 0.00 | 0.00 | 67 | 1016.8 |
| 20260504043055 | 53 | 219 | 1.7 | 4.3 | 0.00 | 0.00 | 0.00 | 64 | 1016.9 |
| 20260504042544 | 53 | 173 | 0.9 | 7.0 | 0.00 | 0.00 | 0.00 | 65 | 1016.8 |
| 20260504042042 | 53 | 196 | 1.7 | 7.0 | 0.00 | 0.00 | 0.00 | 64 | 1016.9 |
| 20260504041557 | 53 | 202 | 1.7 | 6.1 | 0.00 | 0.00 | 0.00 | 64 | 1017.0 |
| 20260504041045 | 52 | 188 | 1.7 | 6.1 | 0.00 | 0.00 | 0.00 | 65 | 1017.0 |
| 20260504040545 | 52 | 197 | 1.7 | 6.1 | 0.00 | 0.00 | 0.00 | 64 | 1017.0 |
| 20260504040110 | 51 | 196 | 1.7 | 4.3 | 0.00 | 0.00 | 0.00 | 68 | 1017.1 |
| 20260504035550 | 52 | 187 | 0.9 | 6.1 | 0.00 | 0.00 | 0.00 | 67 | 1017.1 |
| 20260504035045 | 52 | 173 | 1.7 | 6.1 | 0.00 | 0.00 | 0.00 | 65 | 1017.2 |
| 20260504034607 | 52 | 229 | 0.9 | 5.2 | 0.00 | 0.00 | 0.00 | 66 | 1017.2 |
| 20260504034045 | 51 | 213 | 1.7 | 4.3 | 0.00 | 0.00 | 0.00 | 66 | 1017.1 |
| 20260504033545 | 52 | 220 | 0.9 | 5.2 | 0.00 | 0.00 | 0.00 | 65 | 1017.3 |
| 20260504033053 | 51 | 211 | 0.9 | 5.2 | 0.00 | 0.00 | 0.00 | 66 | 1017.3 |
| 20260504032542 | 51 | 238 | 0.9 | 5.2 | 0.00 | 0.00 | 0.00 | 66 | 1017.3 |
| 20260504032045 | 51 | 226 | 0.9 | 5.2 | 0.00 | 0.00 | 0.00 | 65 | 1017.3 |
| 20260504031550 | 50 | 207 | 0.0 | 5.2 | 0.00 | 0.00 | 0.00 | 67 | 1017.3 |
| 20260504031041 | 50 | 225 | 0.0 | 4.3 | 0.00 | 0.00 | 0.00 | 65 | 1017.2 |
| 20260504030544 | 50 | 0 | 0.9 | 3.5 | 0.00 | 0.00 | 0.00 | 68 | 1017.2 |
| 20260504030052 | 50 | 0 | 0.0 | 3.5 | 0.00 | 0.00 | 0.00 | 66 | 1017.2 |
| 20260504025545 | 50 | 0 | 0.0 | 1.7 | 0.00 | 0.00 | 0.00 | 67 | 1017.2 |
| 20260504025042 | 50 | 134 | 0.0 | 1.7 | 0.00 | 0.00 | 0.00 | 65 | 1017.1 |
| 20260504024558 | 50 | 0 | 0.0 | 1.7 | 0.00 | 0.00 | 0.00 | 68 | 1017.1 |
| 20260504024043 | 50 | 134 | 0.0 | 1.7 | 0.00 | 0.00 | 0.00 | 68 | 1017.1 |
| 20260504023541 | 50 | 0 | 0.0 | 1.7 | 0.00 | 0.00 | 0.00 | 68 | 1017.1 |
| 20260504023051 | 50 | 0 | 0.0 | 1.7 | 0.00 | 0.00 | 0.00 | 68 | 1017.0 |
| 20260504022542 | 50 | 126 | 0.0 | 1.7 | 0.00 | 0.00 | 0.00 | 67 | 1017.0 |
| 20260504022043 | 50 | 0 | 0.0 | 1.7 | 0.00 | 0.00 | 0.00 | 67 | 1016.8 |
| 20260504021550 | 50 | 0 | 0.0 | 1.7 | 0.00 | 0.00 | 0.00 | 67 | 1016.8 |
| 20260504021044 | 51 | 126 | 0.0 | 1.7 | 0.00 | 0.00 | 0.00 | 67 | 1016.8 |
| 20260504020543 | 51 | 126 | 0.0 | 0.9 | 0.00 | 0.00 | 0.00 | 66 | 1016.7 |
| 20260504020053 | 51 | 0 | 0.0 | 0.9 | 0.00 | 0.00 | 0.00 | 66 | 1016.7 |
| 20260504015544 | 51 | 0 | 0.0 | 2.6 | 0.00 | 0.00 | 0.00 | 65 | 1016.7 |
| 20260504015043 | 51 | 121 | 0.0 | 2.6 | 0.00 | 0.00 | 0.00 | 64 | 1016.6 |
| 20260504014550 | 51 | 0 | 0.0 | 2.6 | 0.00 | 0.00 | 0.00 | 63 | 1016.6 |
| 20260504014044 | 51 | 117 | 0.0 | 1.7 | 0.00 | 0.00 | 0.00 | 62 | 1016.6 |
| 20260504013542 | 51 | 117 | 0.0 | 1.7 | 0.00 | 0.00 | 0.00 | 63 | 1016.6 |
| 20260504013103 | 51 | 0 | 0.0 | 0.9 | 0.00 | 0.00 | 0.00 | 65 | 1016.4 |
| 20260504012543 | 52 | 0 | 0.0 | 0.9 | 0.00 | 0.00 | 0.00 | 64 | 1016.4 |
| 20260504012045 | 52 | 0 | 0.0 | 0.9 | 0.00 | 0.00 | 0.00 | 62 | 1016.4 |
| 20260504011555 | 52 | 0 | 0.0 | 0.9 | 0.00 | 0.00 | 0.00 | 61 | 1016.4 |
| 20260504011043 | 53 | 0 | 0.0 | 0.0 | 0.00 | 0.00 | 0.00 | 61 | 1016.4 |
| 20260504010543 | 53 | 0 | 0.0 | 0.0 | 0.00 | 0.00 | 0.00 | 59 | 1016.3 |
| 20260504010101 | 53 | 0 | 0.0 | 0.0 | 0.00 | 0.00 | 0.00 | 56 | 1016.3 |
| 20260504005542 | 53 | 0 | 0.0 | 0.0 | 0.00 | 0.00 | 0.00 | 56 | 1016.2 |
| 20260504005043 | 54 | 0 | 0.0 | 0.9 | 0.00 | 0.00 | 0.00 | 55 | 1016.1 |
| 20260504004606 | 54 | 0 | 0.0 | 0.9 | 0.00 | 0.00 | 0.00 | 54 | 1016.1 |
| 20260504004042 | 54 | 0 | 0.0 | 0.0 | 0.00 | 0.00 | 0.00 | 52 | 1016.2 |
| 20260504003543 | 55 | 0 | 0.0 | 0.0 | 0.00 | 0.00 | 0.00 | 51 | 1016.1 |
| 20260504003051 | 55 | 0 | 0.0 | 0.0 | 0.00 | 0.00 | 0.00 | 51 | 1016.1 |
| 20260504002544 | 55 | 0 | 0.0 | 0.9 | 0.00 | 0.00 | 0.00 | 51 | 1016.0 |
| 20260504002045 | 56 | 0 | 0.0 | 0.9 | 0.00 | 0.00 | 0.00 | 49 | 1015.9 |
| 20260504001549 | 56 | 0 | 0.0 | 0.0 | 0.00 | 0.00 | 0.00 | 48 | 1015.9 |
| 20260504001042 | 57 | 0 | 0.0 | 0.0 | 0.00 | 0.00 | 0.00 | 47 | 1015.8 |
| 20260504000543 | 57 | 0 | 0.0 | 0.0 | 0.00 | 0.00 | 0.00 | 46 | 1015.8 |
| 20260504000048 | 58 | 0 | 0.0 | 0.0 | 0.00 | 0.00 | 0.00 | 46 | 1015.8 |
| 20260503235542 | 58 | 0 | 0.0 | 0.0 | 0.00 | 0.00 | 0.00 | 45 | 1015.8 |
| 20260503235042 | 58 | 0 | 0.0 | 0.0 | 0.00 | 0.00 | 0.00 | 45 | 1015.8 |
| 20260503234552 | 59 | 0 | 0.0 | 0.9 | 0.00 | 0.00 | 0.00 | 45 | 1015.8 |
| 20260503234043 | 59 | 0 | 0.0 | 0.9 | 0.00 | 0.00 | 0.00 | 45 | 1015.9 |
| 20260503233543 | 60 | 0 | 0.0 | 0.9 | 0.00 | 0.00 | 0.00 | 44 | 1015.8 |
| 20260503233049 | 60 | 0 | 0.0 | 0.9 | 0.00 | 0.00 | 0.00 | 44 | 1015.7 |
| 20260503232543 | 61 | 0 | 0.0 | 0.9 | 0.00 | 0.00 | 0.00 | 42 | 1015.8 |
| 20260503232042 | 61 | 0 | 0.0 | 1.7 | 0.00 | 0.00 | 0.00 | 41 | 1015.8 |
| 20260503231549 | 61 | 0 | 0.0 | 2.6 | 0.00 | 0.00 | 0.00 | 42 | 1015.7 |
| 20260503231044 | 62 | 0 | 0.0 | 2.6 | 0.00 | 0.00 | 0.00 | 40 | 1015.9 |
| 20260503230545 | 62 | 0 | 0.0 | 2.6 | 0.00 | 0.00 | 0.00 | 40 | 1015.8 |
| 20260503230056 | 62 | 0 | 0.0 | 1.7 | 0.00 | 0.00 | 0.00 | 38 | 1015.8 |
| 20260503225542 | 63 | 188 | 0.0 | 2.6 | 0.00 | 0.00 | 0.00 | 40 | 1015.8 |
| 20260503225042 | 63 | 182 | 0.0 | 2.6 | 0.00 | 0.00 | 0.00 | 34 | 1015.9 |
| 20260503224549 | 63 | 0 | 0.0 | 3.5 | 0.00 | 0.00 | 0.00 | 36 | 1016.0 |
| 20260503224046 | 64 | 159 | 0.0 | 3.5 | 0.00 | 0.00 | 0.00 | 36 | 1016.0 |
| 20260503223543 | 64 | 159 | 0.9 | 4.3 | 0.00 | 0.00 | 0.00 | 35 | 1016.1 |
| 20260503223051 | 65 | 229 | 0.9 | 4.3 | 0.00 | 0.00 | 0.00 | 33 | 1016.0 |
| 20260503222542 | 65 | 202 | 0.0 | 6.1 | 0.00 | 0.00 | 0.00 | 35 | 1016.0 |
| 20260503222044 | 66 | 0 | 0.0 | 7.0 | 0.00 | 0.00 | 0.00 | 34 | 1016.1 |
| 20260503221550 | 66 | 201 | 0.9 | 7.0 | 0.00 | 0.00 | 0.00 | 31 | 1016.2 |
| 20260503221041 | 66 | 225 | 2.6 | 7.0 | 0.00 | 0.00 | 0.00 | 31 | 1016.2 |
| 20260503220541 | 66 | 177 | 0.0 | 3.5 | 0.00 | 0.00 | 0.00 | 30 | 1016.2 |
| 20260503220109 | 67 | 97 | 0.9 | 3.5 | 0.00 | 0.00 | 0.00 | 32 | 1016.2 |
| 20260503215544 | 67 | 247 | 0.9 | 3.5 | 0.00 | 0.00 | 0.00 | 29 | 1016.3 |
| 20260503215041 | 67 | 16 | 1.7 | 3.5 | 0.00 | 0.00 | 0.00 | 31 | 1016.4 |
| 20260503214550 | 68 | 0 | 0.9 | 6.1 | 0.00 | 0.00 | 0.00 | 29 | 1016.4 |
| 20260503214046 | 68 | 334 | 0.9 | 6.1 | 0.00 | 0.00 | 0.00 | 29 | 1016.4 |
| 20260503213542 | 67 | 0 | 0.9 | 4.3 | 0.00 | 0.00 | 0.00 | 30 | 1016.5 |
| 20260503213054 | 68 | 351 | 0.9 | 4.3 | 0.00 | 0.00 | 0.00 | 28 | 1016.6 |
| 20260503212542 | 67 | 0 | 1.7 | 7.0 | 0.00 | 0.00 | 0.00 | 30 | 1016.6 |
| 20260503212043 | 67 | 19 | 0.9 | 7.0 | 0.00 | 0.00 | 0.00 | 31 | 1016.6 |
| 20260503211552 | 67 | 5 | 1.7 | 5.2 | 0.00 | 0.00 | 0.00 | 26 | 1016.7 |